Flag for France Weather past 2 weeks in Périgueux, France

Now
66 °F

Clear.


Feels Like: 66 °F
Forecast: 59 / 86 °F
Wind: 5 mph from Northwest

Location: Bergerac Airport

Current Time: Jul 25, 2014 at 4:06:34 AM

Latest Report: Jul 25, 2014 at 3:30 AM


Visibility: N/A

Pressure: 29.89 "Hg

Humidity: 94%

Dew point: 64 °F

Location of PérigueuxLocation

Historic Weather in Périgueux — Graph

°F

Périgueux temperature yesterday

Maximum temperature yesterday: 88 °F (at 4:00 PM)
Minimum temperature yesterday: 61 °F (at 5:30 AM)
Average temperature yesterday: 75 °F

Past Weeks' High & Low Weather Summary

 TemperatureHumidityPressure
High97 °F (Jul 17, 4:30 PM)100% (Jul 10, 5:30 AM)30.18 "Hg (Jul 10, 5:30 AM)
Low54 °F (Jul 15, 5:30 AM)26% (Jul 17, 5:00 PM)29.71 "Hg (Jul 18, 9:00 PM)
Average70 °F77%30.02 "Hg
* Reported Jul 10 2:00 AM — Jul 25 2:30 AM, Périgueux, Weather by CustomWeather, © 2014

Note: Actual official high and low records may vary slightly from our data, if they occured in-between our weather recording intervals... More about our weather records

Advertising

Périgueux weather history for previous 24 hours

 ConditionsComfort  
Time TempWeatherWind HumidityBarometerVisibility
2:30 AM
Jul 25
68 °FClear.5 mph88%29.89 "HgN/A
2:00 AM68 °FClear.2 mph88%29.89 "HgN/A
1:30 AM70 °FClear.3 mph83%29.89 "HgN/A
1:00 AM70 °FClear.6 mph83%29.89 "HgN/A
12:30 AM70 °FClear.3 mph83%29.89 "HgN/A
12:00 AM72 °FClear.2 mph78%29.89 "HgN/A
11:30 PM
Jul 24
73 °FClear.1 mph78%29.89 "HgN/A
11:00 PM73 °FClear.5 mph78%29.89 "HgN/A
10:30 PM73 °FClear.5 mph83%29.89 "HgN/A
10:00 PM75 °FClear.5 mph78%29.86 "HgN/A
9:30 PM77 °FClear.5 mph74%29.86 "HgN/A
9:00 PM79 °FClear.3 mph65%29.86 "HgN/A
8:30 PM82 °FClear.6 mph58%29.86 "HgN/A
8:00 PM84 °FClear.9 mph51%29.86 "HgN/A
7:30 PM86 °FClear.9 mph52%29.86 "HgN/A
7:00 PM86 °FClear.8 mph49%29.86 "HgN/A
6:30 PM88 °FClear.6 mph49%29.83 "HgN/A
6:00 PM88 °FClear.6 mph46%29.86 "HgN/A
5:30 PM88 °FClear.7 mph46%29.86 "HgN/A
5:00 PM86 °FClear.5 mph49%29.86 "HgN/A
4:30 PM86 °FClear.6 mph49%29.86 "HgN/A
4:00 PM88 °FClear.7 mph46%29.86 "HgN/A
3:30 PM84 °FClear.6 mph51%29.89 "HgN/A
3:00 PM86 °FClear.3 mph52%29.89 "HgN/A
2:30 PM86 °FClear.6 mph52%29.89 "HgN/A
2:00 PM84 °FPartly sunny.6 mph55%29.89 "Hg4 mi
1:30 PM86 °FClear.3 mph55%29.89 "HgN/A
1:00 PM84 °FClear.2 mph58%29.89 "HgN/A
12:30 PM82 °FClear.6 mph58%29.92 "Hg6 mi
12:00 PM81 °FClear.5 mph66%29.92 "HgN/A
11:30 AM81 °FClear.3 mph66%29.89 "HgN/A
11:00 AM79 °FClear.2 mph70%29.89 "HgN/A
10:30 AM77 °FClear.No wind74%29.92 "HgN/A
10:00 AM73 °FClear.No wind78%29.89 "HgN/A
9:30 AM72 °FClear.No wind83%29.89 "HgN/A
9:00 AM70 °FClear.No wind88%29.89 "HgN/A
8:30 AM66 °FClear.No wind94%29.89 "Hg5 mi
8:00 AM64 °FFog.No wind100%29.89 "Hg2 mi
7:30 AM63 °FFog.No wind94%29.89 "Hg1 mi
7:00 AM61 °FFog.No wind100%29.89 "Hg0 mi
6:30 AM61 °FFog.No wind100%29.86 "Hg0 mi
6:00 AM61 °FFog.No wind100%29.86 "Hg0 mi
5:30 AM61 °FFog.No wind100%29.86 "Hg0 mi
5:00 AM63 °FFog.No wind100%29.86 "Hg1 mi
4:30 AM63 °FFog.No wind100%29.86 "Hg1 mi
4:00 AM63 °FFog.No wind100%29.86 "Hg2 mi
Weather by CustomWeather, © 2014

See weather overviewHow to use our weather pages